ROMMA est une association bénévole à but non lucratif. Votre soutien est indispensable : ADHERER à ROMMA ou FAIRE un DON

Val-d'Isère - (73, Savoie)

Haute-Maurienne (1850 m)   Longitude: 6° 58' 52'' E   Latitude: 45° 26' 53'' N Station partenaire n°93
 

Détail journalier du     <<     >>

Température Precipitation Humidité Vent Dir Rafale Dir. rafale Ensol.
Heure (°C) (mm) (%) (km/h) (km/h) (min)
01:00 1.60625ENE21NNE0
02:00 0.90634NE16O0
03:00 1.20644E16ENE0
04:00 1.20645E11E0
05:00 1.30626E13E0
06:00 1.40633E10ESE0
07:00 1.20645E13E0
08:00 2.10663E10ESE0
09:00 3.30514E18NNO60
10:00 3.705212ONO32ONO60
11:00 4.105312NO34NNO60
12:00 5.905210E26NNO60
13:00 5.60576E15ENE0
14:00 4.90637ESE16SE0
15:00 4.90688SSE24SO30
16:00 4.307110OSO19O0
17:00 4.207311OSO19O0
18:00 4.107511OSO19O30
19:00 3.207913OSO21O30
20:00 3.00829OSO18O30
21:00 2.40876OSO13O0
22:00 2.10906OSO13O0
23:00 2.20902NNE11O0
minuit 2.209003E0

Graphique du 16-04-2019

 

Serveur OMMA